Location: Brantley
(31.5822°N, 86.2569°W)
Time: 02:06:49
(UTC+00:00)

Vanguard 2 - Pass Details

Date: 24 February 2026
Orbit: 553 x 2896 km, 32.9° (Epoch: 13 March)

Event Time Altitude Azimuth Distance (km) Brightness Sun altitude
Rises 09:22:34 0° 249° (WSW) 5,495 - -37.8°
Reaches altitude 10° 09:26:48 10° 248° (WSW) 4,115 - -37.0°
Maximum altitude 09:36:54 77° 165° (SSE) 1,209 - -34.9°
Exits shadow 09:37:46 68° 111° (ESE) 1,205 8.4 -34.7°
Drops below altitude 10° 09:42:52 10° 80° (E) 2,503 11.0 -33.6°
Sets 09:44:53 0° 79° (ENE) 3,250 11.8 -33.2°
